Location: Ferintosh
(52.7647°N, 112.9692°W)
Time: 17:58:15
(UTC+00:00)

A-11 Canister half - Pass Details

Date: 21 May 2024
Orbit: 1515 x 1685 km, 47.2° (Epoch: 12 June)

Event Time Altitude Azimuth Distance (km) Brightness Sun altitude
Rises 13:28:42 0° 268° (W) 4,706 10.9 16.1°
Reaches altitude 10° 13:31:49 10° 266° (W) 3,707 10.5 16.6°
Maximum altitude 13:40:54 61° 189° (S) 1,688 9.4 17.9°
Drops below altitude 10° 13:49:55 10° 112° (ESE) 3,679 12.2 19.3°
Sets 13:53:00 0° 109° (ESE) 4,668 12.6 19.7°
